Torna al catalogo

STARLINK-35702

AttivoComunicazioniVLEO
NORAD 66876·PAYLOAD·🇺🇸 United States

Lanciato Dec 2, 2025 da Cape Canaveral Space Force Station

Loading…

Prossimi Passaggi (prossime 24 ore)

TLE

AggiornatoSource: CelesTrak SupGP

Epoca: Sep 14, 2026, 20:58 UTC

1 66876C 25281AE  26257.87409722  .00004062  00000+0  14710-3 0  2576
2 66876  43.0026 355.0204 0001526 268.0629 293.6881 15.27579913    13

Traccia STARLINK-35702 in tempo reale con AllMySat

Download on the App Store